Weather History for Peru, IN

Change the Weather History Date:

Friday, January 3, 2014

  Actual Average Record
Temperature  
Mean Temperature 2 °F -  
Max Temperature 15 °F 32 °F 57 °F (1997)
Min Temperature -11 °F 21 °F -11 °F (2014)
Degree Days  
Heating Degree Days 63    
Moisture  
Dew Point -2 °F    
Average Humidity 82    
Maximum Humidity 95    
Minimum Humidity 63    
Precipitation  
Precipitation 0.00 in - - ()
Snow  
Snow 0.00 in - - ()
Snow Depth 5.00 in    
Sea Level Pressure  
Sea Level Pressure 30.40 in    
Wind  
Wind Speed 6 mph (South)    
Max Wind Speed 18 mph    
Max Gust Speed 25 mph    
Visibility 7 miles    
Events Fog    
Averages and records for this station are not official NWS values.
T = Trace of Precipitation, MM = Missing Value Source: NWS Daily Summary

Daily Weather History Graph

Daily Weather History Graph

Search for Another Location

Airport:

Trip Planner

Search our weather history database for the weather conditions in past years. The results will help you decide how hot, cold, wet, or windy it might be!

Date:

Astronomy

Jan. 03, 2014 Rise Set
Actual Time 8:08 AM EST 5:29 PM EST
Civil Twilight 7:37 AM EST 6:00 PM EST
Nautical Twilight 7:03 AM EST 6:34 PM EST
Astronomical Twilight 6:30 AM EST 7:08 PM EST
Moon 9:33 AM EST (1/3) 8:39 PM EST (1/3)
Length of Visible Light 10h 22m
Length of Day
9h 21m
Waxing Crescent, 8% of the Moon is Illuminated
Jan 3
Waxing Crescent
Jan 7
First Quarter
Jan 15
Full
Jan 24
Last Quarter
Jan 30
New

Hourly Weather History & Observations

Time (EST) Temp. Windchill Dew Point Humidity Pressure Visibility Wind Dir Wind Speed Gust Speed Precip Events Conditions
12:58 AM 5.0 °F -5.6 °F -2.2 °F 72% 30.40 in 10.0 mi NW 5.8 mph - N/A   Partly Cloudy
1:58 AM -2.7 °F -13.1 °F -6.9 °F 82% 30.42 in 10.0 mi NW 4.6 mph - N/A   Partly Cloudy
2:58 AM -3.8 °F - -6.2 °F 90% 30.43 in 10.0 mi NW 2.3 mph - N/A   Clear
3:58 AM -4.4 °F - -7.1 °F 88% 30.45 in 10.0 mi West 2.3 mph - N/A   Clear
4:58 AM -6.0 °F -14.7 °F -8.3 °F 90% 30.46 in 10.0 mi West 3.5 mph - N/A   Clear
5:58 AM -7.2 °F - -10.1 °F 87% 30.46 in 9.0 mi Calm Calm - N/A   Clear
6:08 AM -7.6 °F - -11.2 °F 84% 30.40 in 10.0 mi Calm Calm - N/A   Clear
6:58 AM -9.0 °F -18.2 °F -12.1 °F 86% 30.49 in 10.0 mi SSW 3.5 mph - N/A   Clear
7:53 AM -11.2 °F -24.8 °F -14.8 °F 84% 30.43 in 0.8 mi SW 5.8 mph - N/A   Clear
7:58 AM -11.6 °F -23.4 °F -14.8 °F 86% 30.51 in 0.2 mi SW 4.6 mph - N/A Fog Light Freezing Fog
8:03 AM -11.2 °F -23.0 °F -14.8 °F 84% 30.43 in 0.2 mi SW 4.6 mph - N/A Fog Light Freezing Fog
8:05 AM -11.2 °F -23.0 °F -14.8 °F 84% 30.43 in 0.2 mi SSW 4.6 mph - N/A Fog Light Freezing Fog
8:22 AM -7.6 °F - -11.2 °F 84% 30.43 in 0.1 mi South 2.3 mph - N/A Fog Light Freezing Fog
8:58 AM -7.8 °F - -10.8 °F 86% 30.51 in 0.1 mi SSE 2.3 mph - N/A Fog Light Freezing Fog
9:58 AM -2.7 °F - -4.9 °F 90% 30.53 in 0.8 mi South 2.3 mph - N/A   Mostly Cloudy
10:02 AM -2.2 °F - -4.0 °F 92% 30.45 in 2.0 mi South 2.3 mph - N/A   Scattered Clouds
10:22 AM -0.4 °F - -2.2 °F 92% 30.45 in 5.0 mi South 2.3 mph - N/A   Clear
10:29 AM -0.4 °F -8.3 °F -2.2 °F 92% 30.45 in 9.0 mi SSW 3.5 mph - N/A   Clear
10:58 AM 1.0 °F - -0.6 °F 93% 30.52 in 10.0 mi SE 2.3 mph - N/A   Clear
11:58 AM 5.9 °F -7.0 °F 4.8 °F 95% 30.49 in 10.0 mi SSE 8.1 mph - N/A   Clear
12:58 PM 11.1 °F 1.7 °F 7.3 °F 85% 30.46 in 10.0 mi SSE 5.8 mph - N/A   Clear
1:58 PM 14.7 °F 2.1 °F 4.1 °F 63% 30.43 in 10.0 mi South 10.4 mph - N/A   Clear
2:58 PM 15.4 °F 1.6 °F 6.4 °F 68% 30.40 in 10.0 mi SSW 12.7 mph - N/A   Overcast
3:58 PM 15.1 °F 3.3 °F 7.3 °F 71% 30.37 in 10.0 mi SSE 9.2 mph - N/A   Mostly Cloudy
4:58 PM 15.6 °F 1.2 °F 7.0 °F 69% 30.35 in 10.0 mi SSE 13.8 mph - N/A   Overcast
5:58 PM 14.7 °F 0.7 °F 6.6 °F 70% 30.34 in 10.0 mi SSE 12.7 mph - N/A   Overcast
6:58 PM 14.4 °F -1.0 °F 6.4 °F 71% 30.30 in 10.0 mi SSE 15.0 mph - N/A   Overcast
7:58 PM 13.8 °F -1.1 °F 7.3 °F 75% 30.29 in 10.0 mi South 13.8 mph - N/A   Clear
8:58 PM 13.8 °F -2.7 °F 7.5 °F 76% 30.25 in 10.0 mi South 17.3 mph - N/A   Clear
9:58 PM 14.5 °F -1.3 °F 8.2 °F 76% 30.20 in 10.0 mi South 16.1 mph - N/A   Clear
10:58 PM 14.4 °F -2.0 °F 7.9 °F 75% 30.17 in 10.0 mi South 17.3 mph - N/A   Clear
11:58 PM 15.4 °F -1.1 °F 8.8 °F 75% 30.15 in 10.0 mi South 18.4 mph 25.3 mph N/A   Clear